WetterOnline ( http://www.wetteronline.de )

Wetter aktuell Bjuroklubb

Aktuelles Wetter: Bjuroklubb (43m)

6-stündlich | Neueste Meldungen
Ortszeit Temperatur Wetter
Fr, 23.06. 14:00 10.4° C bedeckt
Fr, 23.06. 8:00 8.7° C bedeckt
Fr, 23.06. 2:00 8.8° C bedeckt
Do, 22.06. 20:00 9.1° C bedeckt
Ortszeit Temperatur Wetter
Fr, 23.06. 14:00 10.4° C bedeckt
Fr, 23.06. 13:00 11.0° C bedeckt
Fr, 23.06. 12:00 10.5° C bedeckt
Fr, 23.06. 11:00 10.1° C bedeckt
Fr, 23.06. 10:00 9.4° C bedeckt
Fr, 23.06. 9:00 8.9° C bedeckt
Ortszeit Relative Feuchte Sichtweite
Fr, 23.06. 14:00 69% 50 km
Fr, 23.06. 8:00 73% 50 km
Fr, 23.06. 2:00 76% 50 km
Do, 22.06. 20:00 76% 50 km
Ortszeit Relative Feuchte Sichtweite
Fr, 23.06. 14:00 69% 50 km
Fr, 23.06. 13:00 67% 40 km
Fr, 23.06. 12:00 66% >50 km
Fr, 23.06. 11:00 69% 50 km
Fr, 23.06. 10:00 73% >50 km
Fr, 23.06. 9:00 72% >50 km
Ortszeit Niederschlagsmenge Niederschlagsart
Fr, 23.06. 14:00 0.0 l/m2 in 6 Std. -
Fr, 23.06. 8:00 0.2 l/m2 in 12 Std. -
Fr, 23.06. 2:00 0.2 l/m2 in 6 Std. Regenschauer
Do, 22.06. 20:00 0.6 l/m2 in 12 Std. Regenschauer
Ortszeit Niederschlagsmenge Niederschlagsart
Fr, 23.06. 14:00 0.0 l/m2 in 1 Std. -
Fr, 23.06. 13:00 0.0 l/m2 in 1 Std. -
Fr, 23.06. 12:00 0.0 l/m2 in 1 Std. -
Fr, 23.06. 11:00 0.0 l/m2 in 1 Std. -
Fr, 23.06. 10:00 0.0 l/m2 in 1 Std. -
Fr, 23.06. 9:00 0.0 l/m2 in 1 Std. -
Ortszeit Stärke Spitze Richtung
km/h Bft. km/h Grad Sektor
Fr, 23.06. 14:00 11 2 - 90° O
Fr, 23.06. 8:00 22 4 - 360° N
Fr, 23.06. 2:00 25 4 - 350° N
Do, 22.06. 20:00 22 4 - 20° N
Ortszeit Stärke Spitze Richtung
km/h Bft. km/h Grad Sektor
Fr, 23.06. 14:00 11 2 19 90° O
Fr, 23.06. 13:00 11 2 18 70° O
Fr, 23.06. 12:00 11 2 22 20° N
Fr, 23.06. 11:00 14 3 25 350° N
Fr, 23.06. 10:00 18 3 29 - -
Fr, 23.06. 9:00 18 3 32 350° N
Ortszeit Untergrenze Bedeckung Gattung
total tief tief mittel hoch
Fr, 23.06. 14:00 870 m 8/8 8/8 - - -
Fr, 23.06. 8:00 660 m 8/8 8/8 - - -
Fr, 23.06. 2:00 630 m 8/8 8/8 - - -
Do, 22.06. 20:00 1230 m 8/8 8/8 - - -
Ortszeit Bedeckungsgrad in Achtel und Wolkenuntergrenze
Fr, 23.06. 14:00 8(870m)
Fr, 23.06. 13:00 8(900m)
Fr, 23.06. 12:00 8(810m)
Fr, 23.06. 11:00 8(690m)
Fr, 23.06. 10:00 8(630m)
Fr, 23.06. 9:00 8(630m)
Ortszeit Luftdruck NN (hPa) Tendenz (hPa in 3 Std.)
Fr, 23.06. 14:00 1008 - 0,6
Fr, 23.06. 8:00 1008 + 0,3
Fr, 23.06. 2:00 1007 + 0,1
Do, 22.06. 20:00 1007 + 0,4
Ortszeit Luftdruck NN (hPa) Tendenz (hPa in 3 Std.)
Fr, 23.06. 14:00 1008 - 0,6
Fr, 23.06. 13:00 1008 - 0,2
Fr, 23.06. 12:00 1008 + 0,3
Fr, 23.06. 11:00 1009 + 0,8
Fr, 23.06. 10:00 1008 + 0,7
Fr, 23.06. 9:00 1008 + 0,6
Ortszeit Schneehöhe (cm)
Fr, 23.06. 14:00 -
Fr, 23.06. 8:00 -
Fr, 23.06. 2:00 -
Do, 22.06. 20:00 -
Ortszeit Schneehöhe (cm)
Fr, 23.06. 14:00 -
Fr, 23.06. 13:00 -
Fr, 23.06. 12:00 -
Fr, 23.06. 11:00 -
Fr, 23.06. 10:00 -
Fr, 23.06. 9:00 -
Link zu dieser Seite / Seite empfehlen

Das Wetter in ...